ニート彗星

212P/NEAT (2024)

English version
Home page
Updated on May 15, 2024

---------------------------------------------------------------------

・ プロフィール

・ 写真集

・ 軌道要素

Epoch 2024 Mar. 31.0 TT = JDT 2460400.5
T 2024 Apr. 25.09551 TT                                 Rudenko
q   1.6124453            (2000.0)            P               Q
n   0.12789840     Peri.   14.02260     -0.35686611     -0.85629865
a   3.9014494      Node    97.97531     +0.81662579     -0.48004694
e   0.5867061      Incl.   22.14850     +0.45361758     +0.19054541
P   7.71
>From 168 observations 2000 Dec. 1-2024 Apr. 8, mean residual 0".9.

・ 光度変化

        H = 16.0  G = 0.15

---------------------------------------------------------------------

軌道要素はM.P.E.C. 2024-G193に掲載されたものです。
光度グラフはComet for Windowsで作成したものです。

---------------------------------------------------------------------

Copyright(C) Seiichi Yoshida (comet@aerith.net). All rights reserved.